Location: Sungai Bunut
(2.6333°N, 113.7333°E)
Time: 08:40:40
(UTC+00:00)

Courier 1B - Pass Details

Date: 06 December 2023
Orbit: 962 x 1209 km, 28.3° (Epoch: 03 March)

Event Time Altitude Azimuth Distance (km) Brightness Sun altitude
Rises 10:39:17 0° 274° (W) 3,720 11.8 -6.4°
Reaches altitude 10° 10:42:22 10° 262° (W) 2,806 11.5 -7.1°
Maximum altitude 10:47:56 26° 207° (SSW) 1,940 9.7 -8.4°
Drops below altitude 10° 10:53:48 10° 153° (SSE) 2,959 10.0 -9.7°
Sets 10:57:10 0° 141° (SE) 3,962 10.5 -10.5°
